K4AXV-13 Weather Reports


time (UTC)temp
C
wind
direction
speed
KPH
gust
KPH
rain 1hr
cm
rain 24hr
cm
rain mn
cm
humidity
%
barometer
mb
20260903030449 25 83 0.0 0.0 0.00 0.00 0.00
20260903030038 25 83 0.0 0.0 0.00 0.00 0.00
20260903025950 25 83 0.0 0.0 0.00 0.00 0.00
20260903025702 25 83 0.0 0.0 0.00 0.00 0.00
20260903025447 25 83 0.0 0.0 0.00 0.00 0.00
20260903024948 25 83 0.0 0.0 0.00 0.00 0.00
20260903024835 25 83 0.0 0.0 0.00 0.00 0.00
20260903024445 25 83 0.0 0.0 0.00 0.00 0.00
20260903023945 25 83 0.0 0.0 0.00 0.00 0.00
20260903023441 26 83 0.0 0.0 0.00 0.00 0.00
20260903022942 25 83 0.0 0.0 0.00 0.00 0.00
20260903022437 26 83 0.0 0.0 0.00 0.00 0.00
20260903021938 26 83 0.0 0.0 0.00 0.00 0.00
20260903021433 26 83 0.0 0.0 0.00 0.00 0.00
20260903020933 26 83 0.0 0.0 0.00 0.00 0.00
20260903020431 26 83 0.0 0.0 0.00 0.00 0.00
20260903015929 26 83 0.0 0.0 0.00 0.00 0.00
20260903015427 26 83 0.0 0.0 0.00 0.00 0.00
20260903014926 26 83 0.0 0.0 0.00 0.00 0.00
20260903014422 26 83 0.0 0.0 0.00 0.00 0.00
20260903013922 26 83 0.0 0.0 0.00 0.00 0.00
20260903013418 26 83 0.0 0.0 0.00 0.00 0.00
20260903012413 26 83 0.0 0.0 0.00 0.00 0.00
20260903011914 26 83 0.0 0.0 0.00 0.00 0.00
20260903011411 26 83 0.0 0.0 0.00 0.00 0.00
20260903011108 27 83 0.0 0.0 0.00 0.00 0.00
20260903010909 27 83 0.0 0.0 0.00 0.00 0.00
20260903010441 27 83 0.0 0.0 0.00 0.00 0.00
20260903010405 27 83 0.0 0.0 0.00 0.00 0.00
20260903010052 26 83 0.0 0.0 0.00 0.00 0.00
20260903005905 26 83 0.0 0.0 0.00 0.00 0.00
20260903005402 27 83 0.0 0.0 0.00 0.00 0.00
20260903004902 27 83 0.0 0.0 0.00 0.00 0.00
20260903004358 26 83 0.0 0.0 0.00 0.00 0.00
20260903003857 27 83 0.0 0.0 0.00 0.00 0.00
20260903003355 27 83 0.0 0.0 0.00 0.00 0.00
20260903002855 27 83 0.0 0.0 0.00 0.00 0.00
20260903002352 27 83 0.0 0.0 0.00 0.00 0.00
20260903001852 27 83 0.0 0.0 0.00 0.00 0.00
20260903001350 27 83 0.0 0.0 0.00 0.00 0.00
20260903000850 28 83 0.0 0.0 0.00 0.00 0.00
20260903000347 28 83 0.0 0.0 0.00 0.00 0.00
20260902235853 28 83 0.0 0.0 0.00 0.00 0.00
20260902235345 28 83 0.0 0.0 0.00 0.00 0.00
20260902234846 28 83 0.0 0.0 0.00 0.00 0.00
20260902234341 29 83 0.0 0.0 0.00 0.00 0.00
20260902233841 29 63 0.0 0.0 0.00 0.00 0.00
20260902233335 29 51 0.0 0.0 0.00 0.00 0.00
20260902232836 29 79 3.2 3.2 0.00 0.00 0.00
20260902232332 29 63 1.6 1.6 0.00 0.00 0.00
20260902231833 29 38 0.0 0.0 0.00 0.00 0.00
20260902231331 29 62 0.0 1.6 0.00 0.00 0.00
20260902230832 30 53 0.0 0.0 0.00 0.00 0.00
20260902230328 30 58 0.0 0.0 0.00 0.00 0.00
20260902225829 30 58 0.0 0.0 0.00 0.00 0.00
20260902225326 30 63 0.0 0.0 0.00 0.00 0.00
20260902224826 30 72 1.6 1.6 0.00 0.00 0.00
20260902224324 30 73 3.2 1.6 0.00 0.00 0.00
20260902223825 30 87 1.6 4.8 0.00 0.00 0.00
20260902223322 30 149 4.8 3.2 0.00 0.00 0.00
20260902222823 30 127 0.0 4.8 0.00 0.00 0.00
20260902222319 30 135 3.2 6.4 0.00 0.00 0.00
20260902221820 31 115 3.2 1.6 0.00 0.00 0.00
20260902221318 31 98 1.6 1.6 0.00 0.00 0.00
20260902220819 31 314 3.2 3.2 0.00 0.00 0.00
20260902220315 31 121 0.0 0.0 0.00 0.00 0.00
20260902215816 31 117 1.6 0.0 0.00 0.00 0.00
20260902215313 31 129 3.2 6.4 0.00 0.00 0.00
20260902214813 31 122 1.6 3.2 0.00 0.00 0.00
20260902213812 31 128 6.4 3.2 0.00 0.00 0.00
20260902213308 31 143 6.4 9.7 0.00 0.00 0.00
20260902212808 31 125 9.7 9.7 0.00 0.00 0.00
20260902212306 32 129 6.4 9.7 0.00 0.00 0.00
20260902211803 31 111 9.7 11.3 0.00 0.00 0.00
20260902211300 31 132 8.0 3.2 0.00 0.00 0.00
20260902210257 32 134 6.4 3.2 0.00 0.00 0.00
20260902205757 32 153 6.4 11.3 0.00 0.00 0.00
20260902205253 32 125 8.0 3.2 0.00 0.00 0.00
20260902204754 32 108 8.0 4.8 0.00 0.00 0.00
20260902204251 32 120 6.4 9.7 0.00 0.00 0.00
20260902203249 32 136 4.8 6.4 0.00 0.00 0.00
20260902202750 32 135 6.4 9.7 0.00 0.00 0.00
20260902202246 32 131 9.7 6.4 0.00 0.00 0.00
20260902201747 32 145 6.4 11.3 0.00 0.00 0.00
20260902201243 32 170 6.4 3.2 0.00 0.00 0.00
20260902200743 32 122 8.0 4.8 0.00 0.00 0.00
20260902200239 32 131 4.8 8.0 0.00 0.00 0.00
20260902195740 32 68 8.0 14.5 0.00 0.00 0.00
20260902195237 32 153 3.2 3.2 0.00 0.00 0.00
20260902194235 32 114 9.7 14.5 0.00 0.00 0.00
20260902193735 32 152 6.4 9.7 0.00 0.00 0.00
20260902193231 33 150 6.4 8.0 0.00 0.00 0.00
20260902192731 32 139 9.7 8.0 0.00 0.00 0.00
20260902192229 32 120 8.0 8.0 0.00 0.00 0.00
20260902191730 33 136 9.7 8.0 0.00 0.00 0.00
20260902191228 33 117 8.0 11.3 0.00 0.00 0.00
20260902190729 33 149 9.7 9.7 0.00 0.00 0.00
20260902190227 33 134 1.6 3.2 0.00 0.00 0.00
20260902184727 33 215 1.6 0.0 0.00 0.00 0.00
20260902184220 33 139 4.8 6.4 0.00 0.00 0.00
20260902183720 33 153 4.8 4.8 0.00 0.00 0.00
20260902183217 33 110 3.2 3.2 0.00 0.00 0.00
20260902182216 33 56 0.0 0.0 0.00 0.00 0.00
20260902181215 33 104 3.2 3.2 0.00 0.00 0.00
20260902180716 33 83 4.8 3.2 0.00 0.00 0.00
20260902180214 33 152 0.0 0.0 0.00 0.00 0.00
20260902175715 33 100 0.0 0.0 0.00 0.00 0.00
20260902174714 33 86 4.8 4.8 0.00 0.00 0.00
20260902174212 32 89 6.4 3.2 0.00 0.00 0.00
20260902173713 32 166 8.0 6.4 0.00 0.00 0.00
20260902172712 33 149 8.0 9.7 0.00 0.00 0.00
20260902172210 33 93 0.0 1.6 0.00 0.00 0.00
20260902171209 33 24 0.0 0.0 0.00 0.00 0.00
20260902170708 33 346 0.0 0.0 0.00 0.00 0.00
20260902170206 33 97 3.2 8.0 0.00 0.00 0.00
20260902165205 33 82 0.0 0.0 0.00 0.00 0.00
20260902164706 32 82 0.0 0.0 0.00 0.00 0.00
20260902164204 33 79 0.0 0.0 0.00 0.00 0.00
20260902163705 32 93 4.8 3.2 0.00 0.00 0.00
20260902163203 32 84 3.2 4.8 0.00 0.00 0.00
20260902162704 32 84 4.8 4.8 0.00 0.00 0.00
20260902162202 32 104 3.2 3.2 0.00 0.00 0.00
20260902161703 32 93 4.8 3.2 0.00 0.00 0.00
20260902160701 32 245 0.0 0.0 0.00 0.00 0.00
20260902160159 32 322 0.0 0.0 0.00 0.00 0.00
20260902155659 32 80 3.2 3.2 0.00 0.00 0.00
20260902155157 32 77 1.6 1.6 0.00 0.00 0.00
20260902154658 32 122 0.0 4.8 0.00 0.00 0.00
20260902154156 32 124 4.8 3.2 0.00 0.00 0.00
20260902153657 32 17 1.6 0.0 0.00 0.00 0.00
20260902153154 31 48 3.2 0.0 0.00 0.00 0.00
20260902152655 31 117 4.8 3.2 0.00 0.00 0.00
20260902152151 31 105 3.2 1.6 0.00 0.00 0.00
20260902151653 30 69 3.2 0.0 0.00 0.00 0.00
20260902145746 30 62 0.0 0.0 0.00 0.03 0.00
20260902145247 30 70 0.0 0.0 0.00 0.03 0.00
20260902144744 30 131 3.2 4.8 0.00 0.03 0.00
20260902144245 30 72 0.0 0.0 0.00 0.03 0.00
20260902143744 29 72 0.0 0.0 0.00 0.03 0.00
20260902143244 29 90 3.2 3.2 0.00 0.03 0.00
20260902142742 29 52 0.0 0.0 0.00 0.03 0.00
20260902142243 28 52 1.6 0.0 0.00 0.03 0.00
20260902141739 28 4 0.0 0.0 0.00 0.03 0.00
20260902141240 28 4 0.0 0.0 0.00 0.03 0.00
20260902140239 28 23 0.0 0.0 0.00 0.03 0.00
20260902135735 27 94 0.0 0.0 0.00 0.03 0.00
20260902135236 27 94 0.0 0.0 0.00 0.03 0.00
20260902134733 27 115 0.0 0.0 0.00 0.03 0.00
20260902134234 27 115 0.0 0.0 0.00 0.03 0.00
20260902133731 27 115 0.0 0.0 0.00 0.03 0.00
20260902133232 27 115 0.0 0.0 0.00 0.03 0.00
20260902132729 27 138 0.0 0.0 0.00 0.03 0.00
20260902132230 26 214 0.0 0.0 0.00 0.03 0.00
20260902131727 26 214 0.0 0.0 0.00 0.03 0.00
20260902131228 26 214 0.0 0.0 0.00 0.03 0.00
20260902125320 26 214 0.0 0.0 0.00 0.03 0.00
20260902125240 26 214 0.0 0.0 0.00 0.03 0.00
20260902124717 26 214 0.0 0.0 0.00 0.03 0.00
20260902124216 25 214 0.0 0.0 0.00 0.03 0.00
20260902122703 25 214 0.0 0.0 0.00 0.03 0.00
20260902115152 24 214 0.0 0.0 0.00 0.03 0.00
20260902115015 24 214 0.0 0.0 0.00 0.03 0.00
20260902114649 24 214 0.0 0.0 0.00 0.03 0.00
20260902114512 23 214 0.0 0.0 0.00 0.03 0.00
20260902114247 23 214 0.0 0.0 0.00 0.03 0.00
20260902114150 23 214 0.0 0.0 0.00 0.03 0.00
20260902113643 23 214 0.0 0.0 0.00 0.03 0.00
20260902112640 23 214 0.0 0.0 0.00 0.03 0.00
20260902112459 23 214 0.0 0.0 0.00 0.03 0.00
20260902112329 23 214 0.0 0.0 0.00 0.03 0.00
20260902111636 23 214 0.0 0.0 0.00 0.03 0.00
20260902110250 23 214 0.0 0.0 0.00 0.03 0.00
20260902110215 23 214 0.0 0.0 0.00 0.03 0.00
20260902110134 23 214 0.0 0.0 0.00 0.03 0.00
20260902103914 23 214 0.0 0.0 0.00 0.03 0.00
20260902103746 23 214 0.0 0.0 0.00 0.03 0.00
20260902103711 23 214 0.0 0.0 0.00 0.03 0.00
20260902103624 23 214 0.0 0.0 0.00 0.03 0.00
20260902103337 23 214 0.0 0.0 0.00 0.03 0.00
20260902103100 23 214 0.0 0.0 0.00 0.03 0.00
20260902103023 23 214 0.0 0.0 0.00 0.03 0.00
20260902102119 23 214 0.0 0.0 0.00 0.03 0.00
20260902101730 23 214 0.0 0.0 0.00 0.03 0.00
20260902101648 23 214 0.0 0.0 0.00 0.03 0.00
20260902101614 23 214 0.0 0.0 0.00 0.03 0.00
20260902101115 23 214 0.0 0.0 0.00 0.03 0.00
20260902101015 23 214 0.0 0.0 0.00 0.03 0.00
20260902101013 23 214 0.0 0.0 0.00 0.03 0.00
20260902100834 23 214 0.0 0.0 0.00 0.03 0.00
20260902100738 23 214 0.0 0.0 0.00 0.03 0.00
20260902100642 23 214 0.0 0.0 0.00 0.03 0.00
20260902100611 23 214 0.0 0.0 0.00 0.03 0.00
20260902100314 23 214 0.0 0.0 0.00 0.03 0.00
20260902100242 23 214 0.0 0.0 0.00 0.03 0.00
20260902100111 23 214 0.0 0.0 0.00 0.03 0.00
20260902094833 23 214 0.0 0.0 0.00 0.03 0.00
20260902094808 24 214 0.0 0.0 0.00 0.03 0.00
20260902094746 23 214 0.0 0.0 0.00 0.03 0.00
20260902094737 24 214 0.0 0.0 0.00 0.03 0.00
20260902094059 23 214 0.0 0.0 0.00 0.03 0.00
20260902093134 24 214 0.0 0.0 0.00 0.03 0.00
20260902093057 24 214 0.0 0.0 0.00 0.03 0.00
20260902091552 23 214 0.0 0.0 0.00 0.03 0.00
20260902083721 23 214 0.0 0.0 0.00 0.03 0.00
20260902083646 23 214 0.0 0.0 0.00 0.03 0.00
20260902083541 23 214 0.0 0.0 0.00 0.03 0.00
20260902083436 23 214 0.0 0.0 0.00 0.03 0.00
20260902083256 23 214 0.0 0.0 0.00 0.03 0.00
20260902082607 23 214 0.0 0.0 0.00 0.03 0.00
20260902082535 23 214 0.0 0.0 0.00 0.03 0.00
20260902081458 23 214 0.0 0.0 0.00 0.03 0.00
20260902081331 23 214 0.0 0.0 0.00 0.03 0.00
20260902081108 23 214 0.0 0.0 0.00 0.03 0.00
20260902081033 23 214 0.0 0.0 0.00 0.03 0.00
20260902080246 24 214 0.0 0.0 0.00 0.03 0.00
20260902080115 24 214 0.0 0.0 0.00 0.03 0.00
20260902080031 24 214 0.0 0.0 0.00 0.03 0.00
20260902074524 23 214 0.0 0.0 0.00 0.03 0.00
20260902073520 24 214 0.0 0.0 0.00 0.03 0.00
20260902072516 24 214 0.0 0.0 0.00 0.03 0.00
20260902071511 24 214 0.0 0.0 0.00 0.03 0.00
20260902071218 24 214 0.0 0.0 0.00 0.03 0.00
20260902071049 24 214 0.0 0.0 0.00 0.03 0.00
20260902071011 24 214 0.0 0.0 0.00 0.03 0.00
20260902065321 23 214 0.0 0.0 0.00 0.03 0.00
20260902065011 23 214 0.0 0.0 0.00 0.03 0.00
20260902064511 24 214 0.0 0.0 0.00 0.03 0.00
20260902064006 24 214 0.0 0.0 0.00 0.03 0.00
20260902063552 24 214 0.0 0.0 0.00 0.00 0.03
20260902063519 24 214 0.0 0.0 0.00 0.00 0.03
20260902063005 24 214 0.0 0.0 0.00 0.00 0.03
20260902062042 24 214 0.0 0.0 0.00 0.00 0.03
20260902062004 24 214 0.0 0.0 0.00 0.00 0.03
20260902061458 24 214 0.0 0.0 0.00 0.00 0.03
20260902060503 23 214 0.0 0.0 0.00 0.00 0.03
20260902055958 24 214 0.0 0.0 0.00 0.00 0.03
20260902055454 24 214 0.0 0.0 0.00 0.00 0.03
20260902055037 24 214 0.0 0.0 0.00 0.00 0.03
20260902054955 24 214 0.0 0.0 0.00 0.00 0.03
20260902054451 24 214 0.0 0.0 0.00 0.00 0.03
20260902053952 24 214 0.0 0.0 0.00 0.00 0.03
20260902053450 24 214 0.0 0.0 0.00 0.00 0.03
20260902053324 24 214 0.0 0.0 0.00 0.00 0.03
20260902053214 24 214 0.0 0.0 0.00 0.00 0.03
20260902052950 24 214 0.0 0.0 0.00 0.00 0.03
20260902052446 25 214 0.0 0.0 0.00 0.00 0.03
20260902051946 25 214 0.0 0.0 0.00 0.00 0.03
20260902051444 24 214 0.0 0.0 0.00 0.00 0.03
20260902051026 25 214 0.0 0.0 0.00 0.00 0.03
20260902050945 25 214 0.0 0.0 0.00 0.00 0.03
20260902050736 24 214 0.0 0.0 0.00 0.00 0.03
20260902050704 24 214 0.0 0.0 0.00 0.00 0.03
20260902045943 24 214 0.0 0.0 0.00 0.00 0.03
20260902045441 24 214 0.0 0.0 0.00 0.00 0.03
20260902044944 25 214 0.0 0.0 0.00 0.00 0.03
20260902044527 25 214 0.0 0.0 0.00 0.00 0.03
20260902044523 24 214 0.0 0.0 0.00 0.00 0.03
20260902044438 25 214 0.0 0.0 0.00 0.00 0.03
20260902043939 25 214 0.0 0.0 0.00 0.00 0.03
20260902042937 24 214 0.0 0.0 0.00 0.00 0.03
20260902042433 25 214 0.0 0.0 0.00 0.00 0.03
20260902041432 25 214 0.0 0.0 0.00 0.00 0.03
20260902035931 25 214 0.0 0.0 0.00 0.00 0.03
20260902034930 25 214 0.0 0.0 0.00 0.00 0.03
20260902034427 25 214 0.0 0.0 0.00 0.00 0.03
20260902033928 25 214 0.0 0.0 0.00 0.00 0.03
20260902033504 25 214 0.0 0.0 0.00 0.00 0.03
20260902033425 25 214 0.0 0.0 0.00 0.00 0.03
20260902032926 25 214 0.0 0.0 0.00 0.00 0.03
20260902032421 25 214 0.0 0.0 0.00 0.00 0.03
20260902031921 25 214 0.0 0.0 0.00 0.00 0.03
20260902031504 25 214 0.0 0.0 0.00 0.00 0.03
20260902031417 25 214 0.0 0.0 0.00 0.00 0.03
20260902030917 25 214 0.0 0.0 0.00 0.00 0.03